Wind_Speed
59 59 59 59 58 58 58 57 57 57 57 57 58 58 58 58 59 59 58 58 59 59 60 60 60 60 60 59 59 60 60 60 61 60 60 59 59 59 58 58 57 56 57
60 60 60 60 60 59 59 59 59 59 59 59 59 60 60 60 60 61 61 61 61 61 61 61 61 61 61 61 61 61 60 60 60 61 60 60 58 58 58 57 57 58 59
60 60 61 61 61 61 61 61 61 61 61 61 61 61 61 62 62 63 63 63 63 63 63 62 62 62 61 61 61 61 60 60 60 61 60 60 59 59 59 60 60 61 61
60 60 61 62 62 63 63 63 63 63 63 63 62 63 63 63 63 63 63 63 63 63 63 62 62 62 61 61 60 61 60 60 60 61 60 60 60 60 61 61 61 61 60
59 60 61 61 62 63 63 64 64 63 63 63 63 64 64 63 63 63 63 63 62 62 62 62 62 61 61 61 60 60 59 59 59 59 60 61 61 60 62 62 61 60 60
58 59 60 61 62 62 63 63 63 63 63 63 63 64 64 63 63 63 63 63 62 61 61 62 62 62 61 60 60 60 60 59 59 59 61 61 62 62 62 62 62 62 61
58 58 59 60 61 61 61 61 61 62 62 63 63 64 64 64 64 63 62 62 62 63 63 62 61 60 59 59 59 59 59 60 60 61 62 62 62 61 62 61 62 62 62
57 57 58 59 59 60 60 60 61 61 61 62 62 63 63 62 62 62 61 61 62 61 61 60 60 59 60 59 59 59 60 61 61 61 61 61 62 62 63 63 63 62 61
55 54 55 56 57 58 59 59 60 60 61 61 62 62 62 61 61 61 61 62 62 62 62 61 60 60 60 59 59 60 60 60 60 60 61 62 63 63 63 63 62 62 60
53 53 54 55 56 57 57 58 58 58 58 58 59 59 60 59 60 60 61 61 61 61 60 60 59 59 58 59 59 60 60 60 60 61 62 63 62 62 62 61 61 60 59
52 52 53 54 54 54 54 54 55 56 56 57 57 57 57 58 58 58 59 60 59 59 59 59 58 58 58 58 59 60 60 61 61 61 61 61 60 59 59 59 59 59 59
50 51 52 52 52 52 52 52 53 54 54 54 55 55 56 56 56 56 57 58 59 59 58 58 57 57 57 58 58 59 59 59 59 59 58 58 57 57 57 57 57 57 57
50 50 50 50 51 51 51 51 52 53 52 52 53 53 53 54 54 55 55 56 56 56 56 55 55 55 56 57 57 57 57 57 58 58 58 57 57 57 56 56 56 56 56
48 48 48 48 49 50 51 51 51 51 51 51 51 52 52 52 53 54 54 54 53 54 53 53 54 54 55 55 56 56 57 57 57 57 58 58 58 57 56 56 56 55 54
47 48 48 47 47 49 50 50 50 51 51 51 51 51 51 51 51 52 52 52 52 53 53 53 53 54 54 55 56 56 56 56 57 57 57 57 56 56 55 55 55 54 53
47 47 48 47 47 48 49 48 49 49 50 50 50 50 50 50 51 50 50 50 51 52 53 54 53 54 55 55 55 55 55 55 56 56 56 55 55 54 54 54 53 52 52
45 46 47 47 47 47 48 48 48 48 49 49 49 49 50 50 50 49 49 50 50 51 52 52 53 53 54 54 54 54 54 54 55 55 55 54 54 54 53 52 52 51 50
44 44 44 45 45 46 46 46 46 46 46 46 47 47 48 48 48 49 49 49 49 50 51 51 51 51 52 52 53 53 53 53 54 54 54 53 53 52 51 51 50 50 49
42 43 43 43 43 44 44 44 44 44 44 45 46 46 46 46 46 47 48 49 49 49 49 50 50 51 51 52 52 52 52 52 52 53 52 52 51 51 50 50 49 49 48
41 41 41 41 42 42 42 43 43 43 44 45 45 45 45 45 45 46 47 47 46 47 47 48 49 49 50 51 51 51 51 51 51 51 51 50 50 50 50 50 49 49 48
39 39 39 39 40 40 40 40 41 41 42 42 43 43 43 44 44 44 45 44 45 45 46 46 47 49 49 49 49 50 51 51 50 50 49 50 50 50 50 50 49 49 48
38 38 38 38 38 39 39 39 40 40 40 41 41 42 42 43 43 43 43 44 44 45 46 47 47 48 48 48 48 48 48 48 48 48 48 48 48 49 48 48 47 47 47
35 35 36 37 38 38 39 39 39 39 39 40 41 41 41 41 41 42 42 43 43 44 45 45 46 46 47 47 48 48 47 47 47 47 46 46 47 47 47 47 47 46 46
34 35 35 36 36 37 37 37 38 38 39 39 40 40 41 41 42 42 42 43 43 44 44 45 46 46 46 47 47 47 47 46 46 45 45 45 45 45 45 45 46 46 45
34 35 35 36 36 36 37 37 38 38 38 39 39 40 40 41 41 42 43 44 44 44 44 45 45 45 45 45 44 44 44 44 44 44 44 44 45 45 45 45 45 45 44
34 34 35 35 35 36 37 37 37 37 37 38 38 39 39 40 41 42 43 43 44 44 44 45 44 44 44 43 43 43 43 43 43 43 43 44 45 45 45 45 45 44 43
Wind_Direction
257 258 259 261 262 263 264 265 267 268 269 269 271 272 273 274 275 276 277 278 279 281 282 283 284 285 285 286 286 287 288 289 289 289 290 290 290 290 290 289 290 290 290
257 257 259 260 261 262 263 264 265 266 267 269 270 271 272 273 274 275 276 277 279 280 281 282 283 284 285 284 285 287 287 287 288 288 288 289 289 289 289 289 290 290 291
256 257 258 259 260 261 262 263 264 265 266 267 269 270 271 272 273 274 276 277 278 279 280 281 282 283 283 284 285 285 285 286 286 287 288 288 288 289 289 290 291 291 291
256 257 258 259 260 261 262 263 264 265 266 267 268 269 270 271 273 274 275 276 277 278 279 280 281 282 283 284 284 284 284 285 286 287 288 288 289 289 290 291 291 291 291
257 257 258 259 260 261 262 263 263 264 265 266 268 269 270 271 272 273 274 275 276 278 279 280 280 281 282 283 284 284 284 285 286 286 287 289 289 290 290 290 291 290 290
258 258 259 259 260 260 261 262 263 264 265 266 267 268 269 271 271 272 273 274 275 277 277 278 280 280 281 282 283 284 284 285 286 286 288 290 291 291 291 292 291 290 289
259 260 260 260 261 261 262 263 263 264 265 266 267 268 269 270 271 273 273 275 275 276 276 277 278 280 281 282 282 283 285 286 287 288 289 291 291 291 291 291 292 291 291
260 260 261 261 262 262 263 264 264 265 266 267 267 268 269 270 271 272 273 274 275 275 276 277 279 280 281 281 282 284 285 286 287 289 290 291 291 291 292 292 292 292 292
260 260 260 260 262 263 263 264 265 266 267 268 268 269 270 271 271 272 273 274 275 276 277 279 280 281 281 282 283 284 285 286 288 289 290 291 291 291 292 292 292 292 292
259 260 260 261 262 263 263 264 265 266 267 268 269 270 271 272 272 272 273 275 276 277 278 279 280 281 281 282 283 285 285 286 288 288 290 291 291 291 292 293 293 293 293
259 261 262 262 263 263 264 265 266 267 268 269 270 271 272 273 273 273 274 275 276 277 277 278 279 280 281 282 284 285 285 286 287 289 290 290 291 292 293 294 294 294 295
261 261 261 262 264 265 265 266 267 267 268 269 270 272 273 274 275 275 276 276 276 277 278 279 279 280 281 282 284 285 286 287 288 289 290 291 292 293 293 294 295 296 296
261 262 262 263 264 265 266 266 267 268 268 270 271 273 274 275 276 276 276 276 276 277 278 279 279 280 281 282 283 285 287 288 289 289 290 291 293 293 293 294 295 296 296
261 262 263 264 265 265 266 268 269 269 270 271 273 274 274 275 276 276 276 276 276 277 278 279 279 280 282 284 285 286 287 288 289 290 291 292 293 294 294 294 295 295 295
262 263 264 264 265 266 266 267 268 269 270 272 274 274 274 275 276 276 275 275 276 277 278 279 280 282 284 285 286 288 288 289 290 292 293 293 293 293 294 294 295 295 295
263 264 264 265 266 267 267 267 268 269 271 273 274 274 274 276 276 276 277 277 277 278 279 280 281 282 284 286 287 287 288 289 291 292 293 294 295 295 295 295 295 295 295
263 263 264 265 266 266 267 267 268 269 271 273 274 275 276 277 277 277 277 278 279 280 280 281 282 283 285 286 287 288 289 290 291 292 293 294 294 295 295 295 294 294 294
263 263 263 264 264 265 266 267 269 271 273 273 274 276 277 278 278 278 279 280 280 281 282 283 284 285 286 287 288 289 290 290 291 291 292 293 293 294 294 294 294 294 293
262 263 263 264 263 265 267 268 270 272 272 274 275 275 277 278 279 279 280 281 281 282 283 284 285 286 287 288 289 289 290 290 291 291 291 292 293 293 294 294 294 293 293
261 262 263 263 264 265 267 269 271 272 273 274 275 276 276 278 279 280 282 283 283 284 285 285 286 287 288 288 288 289 289 290 291 292 292 292 292 293 294 294 293 293 293
260 260 261 263 264 266 268 271 272 273 274 275 275 276 278 279 281 282 283 284 285 285 286 286 287 288 289 288 288 289 290 290 291 292 292 292 293 293 294 294 294 293 293
261 261 262 263 264 267 269 271 273 274 274 275 277 278 279 281 283 284 284 285 286 287 287 288 288 289 290 289 289 290 291 291 292 292 292 292 293 294 294 294 293 293 292
261 262 264 265 266 268 270 272 273 274 276 277 278 279 280 281 283 284 285 286 287 288 289 290 291 292 291 290 290 290 291 291 291 291 292 293 294 295 296 296 294 294 293
262 262 264 265 267 270 271 272 274 276 277 279 280 280 280 282 283 284 285 286 287 289 290 291 293 293 293 292 292 291 291 292 293 293 294 295 295 296 297 297 296 295 294
262 264 266 267 269 270 272 274 276 278 279 280 280 280 281 282 283 283 285 286 288 289 290 291 292 293 293 293 293 293 293 293 293 294 294 295 296 296 297 297 297 296 295
264 266 268 269 269 271 274 275 277 278 279 280 281 282 282 283 284 285 286 287 288 288 289 290 291 292 293 293 293 293 293 293 293 294 295 296 296 297 297 297 297 296 295
Height
5703 5705 5707 5708 5709 5710 5711 5712 5712 5712 5712 5712 5712 5711 5710 5709 5707 5706 5704 5703 5701 5699 5696 5694 5691 5688 5685 5681 5678 5675 5671 5667 5664 5662 5658 5654 5650 5646 5642 5638 5634 5630 5626
5688 5690 5691 5693 5694 5695 5696 5696 5697 5697 5697 5697 5697 5696 5695 5694 5693 5691 5690 5688 5686 5684 5681 5679 5676 5673 5670 5667 5663 5660 5656 5652 5649 5646 5644 5640 5636 5631 5628 5624 5619 5615 5611
5672 5674 5675 5677 5678 5679 5680 5681 5681 5681 5681 5681 5681 5680 5680 5678 5677 5676 5674 5672 5670 5668 5666 5663 5661 5658 5655 5652 5648 5645 5641 5637 5634 5630 5628 5625 5621 5617 5613 5609 5604 5600 5596
5655 5657 5659 5660 5661 5662 5663 5664 5664 5665 5665 5665 5664 5664 5663 5662 5661 5660 5658 5656 5654 5652 5650 5648 5645 5642 5639 5636 5633 5630 5626 5623 5619 5615 5612 5609 5606 5601 5597 5593 5590 5585 5581
5639 5641 5642 5643 5644 5645 5646 5647 5647 5648 5648 5648 5648 5647 5647 5646 5645 5643 5642 5640 5638 5636 5634 5632 5629 5627 5624 5621 5618 5615 5611 5608 5604 5601 5597 5594 5590 5586 5581 5577 5573 5569 5565
5622 5624 5625 5626 5628 5628 5629 5630 5631 5631 5631 5631 5631 5630 5630 5629 5628 5627 5625 5624 5622 5621 5618 5616 5614 5612 5609 5606 5602 5599 5596 5592 5589 5586 5582 5578 5574 5569 5565 5560 5555 5552 5549
5606 5607 5609 5610 5611 5612 5612 5613 5614 5614 5615 5615 5614 5614 5613 5612 5611 5610 5608 5607 5606 5604 5603 5600 5598 5596 5593 5590 5587 5584 5580 5577 5573 5570 5566 5562 5557 5553 5548 5544 5538 5534 5530
5590 5591 5592 5593 5594 5595 5596 5597 5597 5598 5598 5598 5598 5597 5596 5596 5595 5594 5592 5591 5589 5588 5586 5584 5582 5580 5577 5575 5572 5569 5565 5562 5558 5554 5550 5545 5540 5535 5530 5526 5521 5517 5513
5574 5575 5576 5577 5578 5579 5580 5581 5581 5581 5581 5581 5581 5580 5580 5580 5579 5577 5576 5574 5573 5571 5569 5568 5566 5564 5562 5559 5556 5553 5550 5546 5541 5537 5533 5528 5523 5518 5513 5508 5504 5499 5496
5558 5559 5560 5561 5563 5563 5564 5565 5565 5565 5565 5565 5565 5564 5564 5563 5562 5561 5559 5558 5557 5555 5553 5552 5550 5548 5545 5542 5540 5537 5534 5530 5526 5521 5516 5512 5507 5501 5496 5491 5486 5481 5477
5542 5544 5545 5546 5547 5548 5548 5549 5549 5549 5549 5549 5549 5548 5547 5547 5546 5544 5543 5541 5540 5539 5537 5536 5534 5531 5529 5526 5523 5520 5517 5513 5509 5504 5500 5495 5490 5485 5480 5474 5469 5464 5459
5527 5528 5529 5530 5531 5532 5532 5533 5533 5533 5533 5533 5532 5532 5531 5530 5529 5527 5526 5525 5523 5522 5521 5519 5517 5514 5512 5509 5507 5503 5500 5496 5492 5488 5483 5479 5474 5469 5464 5459 5453 5448 5443
5512 5513 5514 5515 5516 5517 5517 5518 5518 5518 5518 5517 5517 5516 5515 5514 5513 5511 5510 5508 5506 5505 5504 5502 5500 5498 5495 5493 5490 5487 5483 5479 5476 5472 5468 5463 5459 5453 5449 5444 5439 5433 5428
5497 5499 5499 5501 5501 5502 5503 5503 5503 5503 5503 5502 5502 5501 5500 5499 5498 5496 5494 5492 5491 5489 5487 5486 5484 5482 5479 5477 5474 5470 5467 5463 5459 5456 5451 5447 5442 5437 5433 5428 5423 5419 5414
5483 5485 5485 5486 5487 5488 5488 5488 5488 5488 5487 5487 5486 5485 5485 5484 5482 5480 5479 5477 5476 5474 5472 5470 5468 5466 5463 5461 5458 5454 5451 5447 5443 5439 5435 5430 5426 5421 5416 5412 5407 5403 5398
5469 5471 5471 5472 5473 5473 5474 5474 5473 5473 5473 5472 5471 5470 5469 5468 5467 5465 5464 5462 5460 5459 5457 5455 5453 5450 5448 5445 5441 5438 5434 5430 5426 5422 5418 5414 5410 5405 5401 5396 5392 5387 5383
5455 5456 5457 5458 5459 5459 5460 5460 5460 5459 5458 5457 5456 5455 5454 5453 5452 5450 5449 5447 5445 5443 5441 5439 5437 5434 5431 5428 5425 5421 5418 5414 5410 5406 5402 5398 5394 5389 5385 5381 5377 5373 5369
5441 5442 5443 5444 5444 5445 5445 5445 5445 5445 5444 5443 5443 5441 5440 5439 5437 5435 5434 5432 5430 5428 5426 5423 5420 5418 5415 5412 5409 5405 5402 5398 5394 5390 5386 5382 5378 5374 5370 5366 5362 5358 5354
5428 5428 5429 5430 5431 5431 5431 5431 5431 5431 5430 5430 5429 5428 5426 5424 5423 5421 5419 5417 5415 5413 5410 5407 5405 5402 5399 5396 5393 5390 5386 5383 5379 5375 5371 5367 5363 5359 5355 5351 5347 5343 5339
5414 5415 5416 5417 5417 5418 5418 5418 5417 5417 5417 5416 5415 5414 5412 5410 5409 5407 5405 5402 5400 5398 5395 5392 5390 5387 5384 5381 5378 5374 5371 5367 5364 5360 5356 5352 5348 5344 5340 5336 5332 5329 5325
5402 5402 5403 5404 5404 5405 5405 5405 5404 5404 5403 5402 5401 5400 5398 5397 5395 5393 5391 5388 5386 5384 5381 5378 5375 5372 5369 5366 5363 5359 5356 5352 5349 5345 5341 5337 5333 5329 5325 5322 5318 5314 5311
5389 5390 5391 5392 5392 5392 5392 5392 5391 5391 5390 5389 5388 5387 5385 5383 5382 5379 5377 5375 5373 5370 5367 5364 5361 5358 5354 5351 5348 5344 5341 5337 5334 5330 5326 5323 5319 5315 5311 5307 5303 5300 5296
5378 5378 5379 5380 5380 5380 5380 5379 5379 5378 5377 5376 5375 5373 5372 5370 5368 5366 5364 5362 5359 5356 5353 5350 5347 5343 5340 5337 5333 5330 5327 5323 5320 5316 5312 5309 5305 5301 5297 5293 5289 5286 5282
5367 5367 5368 5368 5368 5368 5367 5367 5366 5365 5364 5363 5362 5360 5359 5357 5355 5353 5351 5348 5346 5343 5340 5337 5333 5330 5326 5323 5319 5316 5312 5309 5306 5302 5299 5295 5291 5288 5284 5280 5276 5272 5268
5356 5356 5356 5356 5356 5356 5355 5354 5354 5353 5351 5350 5349 5347 5345 5344 5342 5340 5337 5335 5332 5329 5326 5323 5320 5316 5312 5309 5305 5302 5298 5295 5292 5288 5285 5282 5278 5274 5270 5267 5262 5259 5255
5344 5344 5344 5344 5344 5344 5343 5342 5341 5340 5339 5337 5336 5334 5332 5330 5328 5326 5324 5321 5318 5315 5312 5309 5306 5302 5299 5296 5292 5289 5285 5282 5278 5275 5272 5268 5265 5261 5257 5253 5249 5245 5242